Weather History for KLVM - June, 2013

Change the Weather History Date:

Friday, June 7, 2013

  Actual Average Record
Temperature  
Mean Temperature 64 °F 56 °F  
Max Temperature 82 °F 70 °F 95 °F (2000)
Min Temperature 46 °F 42 °F 32 °F (1995)
Degree Days  
Heating Degree Days 2 9  
Month to date heating degree days 68  
Since 1 June heating degree days 68  
Since 1 July heating degree days 7464  
Cooling Degree Days 0 0  
Month to date cooling degree days 0  
Year to date cooling degree days 1  
Since 1 June cooling degree days 0  
Growing Degree Days 14 (Base 50)    
Moisture  
Dew Point 44 °F    
Average Humidity 50    
Maximum Humidity 86    
Minimum Humidity 25    
Precipitation  
Precipitation 0.00 in 0.10 in 0.83 in (2011)
Month to date precipitation 0.70  
Year to date precipitation 6.96  
Sea Level Pressure  
Sea Level Pressure 29.80 in    
Wind  
Wind Speed 8 mph (WNW)    
Max Wind Speed 18 mph    
Max Gust Speed 28 mph    
Visibility 10 miles    
Events      
T = Trace of Precipitation, MM = Missing Value Source: NWS Daily Summary

Daily Weather History Graph

Daily Weather History Graph

Search for Another Location

Airport or City:

Trip Planner

Search our weather history database for the weather conditions in past years. The results will help you decide how hot, cold, wet, or windy it might be!

Date:

Astronomy

Jun. 07, 2013 Rise Set
Actual Time 5:32 AM MDT 9:08 PM MDT
Civil Twilight 4:55 AM MDT 9:46 PM MDT
Nautical Twilight 4:05 AM MDT 10:36 PM MDT
Astronomical Twilight 2:58 AM MDT 11:44 PM MDT
Moon 5:01 AM MDT (6/7) 8:22 PM MDT (6/7)
Length of Visible Light 16h 51m
Length of Day
15h 35m
Waning Crescent, 1% of the Moon is Illuminated
Jun 7
Waning Crescent
Jun 8
New
Jun 16
First Quarter
Jun 23
Full
Jun 29
Last Quarter

Hourly Weather History & Observations

Time (MDT) Temp. Dew Point Humidity Pressure Visibility Wind Dir Wind Speed Gust Speed Precip Events Conditions
12:53 AM 54.0 °F 46.9 °F 77% 29.96 in 10.0 mi South 5.8 mph - N/A   Clear
1:53 AM 52.0 °F 46.0 °F 80% 29.94 in 10.0 mi Calm Calm - N/A   Clear
2:53 AM 48.0 °F 44.1 °F 86% 29.93 in 10.0 mi Calm Calm - N/A   Clear
3:53 AM 48.0 °F 44.1 °F 86% 29.92 in 10.0 mi NW 3.5 mph - N/A   Clear
4:53 AM 46.9 °F 43.0 °F 86% 29.91 in 10.0 mi NW 5.8 mph - N/A   Clear
5:53 AM 48.0 °F 44.1 °F 86% 29.91 in 10.0 mi NNW 6.9 mph - N/A   Clear
6:53 AM 51.1 °F 45.0 °F 80% 29.90 in 10.0 mi Calm Calm - N/A   Clear
7:53 AM 62.1 °F 45.0 °F 53% 29.87 in 10.0 mi WNW 17.3 mph - N/A   Clear
8:53 AM 70.0 °F 45.0 °F 41% 29.85 in 10.0 mi West 13.8 mph - N/A   Clear
9:53 AM 70.0 °F 42.1 °F 36% 29.84 in 10.0 mi WSW 16.1 mph - N/A   Clear
10:53 AM 77.0 °F 43.0 °F 30% 29.82 in 10.0 mi WNW 15.0 mph 23.0 mph N/A   Clear
11:53 AM 78.1 °F 42.1 °F 28% 29.80 in 10.0 mi West 13.8 mph 23.0 mph N/A   Scattered Clouds
12:53 PM 75.9 °F 43.0 °F 31% 29.79 in 10.0 mi West 13.8 mph - N/A   Scattered Clouds
1:53 PM 78.1 °F 43.0 °F 29% 29.77 in 10.0 mi WSW 13.8 mph - N/A   Partly Cloudy
2:53 PM 81.0 °F 42.1 °F 25% 29.74 in 10.0 mi West 17.3 mph 27.6 mph N/A   Scattered Clouds
3:53 PM 77.0 °F 44.1 °F 31% 29.73 in 10.0 mi West 16.1 mph 25.3 mph N/A   Overcast
4:53 PM 77.0 °F 46.0 °F 33% 29.72 in 10.0 mi West 11.5 mph - N/A   Scattered Clouds
5:53 PM 77.0 °F 46.0 °F 33% 29.69 in 10.0 mi West 11.5 mph - N/A   Scattered Clouds
6:53 PM 80.1 °F 43.0 °F 27% 29.66 in 10.0 mi West 18.4 mph 26.5 mph N/A   Mostly Cloudy
7:53 PM 75.0 °F 46.0 °F 36% 29.65 in 10.0 mi West 10.4 mph - N/A   Partly Cloudy
8:53 PM 71.1 °F 46.9 °F 42% 29.65 in 10.0 mi NW 9.2 mph - N/A   Overcast
9:53 PM 68.0 °F 46.0 °F 45% 29.68 in 10.0 mi NW 10.4 mph - N/A   Scattered Clouds
10:53 PM 64.9 °F 45.0 °F 48% 29.70 in 10.0 mi NW 13.8 mph - N/A   Mostly Cloudy
11:53 PM 62.1 °F 42.1 °F 48% 29.73 in 10.0 mi NW 11.5 mph - N/A   Clear